GW7354 Weather Reports


time (UTC)temp
F
wind
direction
speed
knots
gust
knots
rain 1hr
in
rain 24hr
in
rain mn
in
humidity
%
barometer
mb
20260504004434 51 55 0.0 0.0 0.00 0.00 0.00 50 1009.5
20260504003931 51 55 0.0 0.0 0.00 0.00 0.00 50 1009.2
20260504003427 52 55 0.0 0.0 0.00 0.00 0.00 50 1009.1
20260504002924 52 55 0.0 0.0 0.00 0.00 0.00 48 1009.3
20260504002421 53 55 0.0 0.0 0.00 0.00 0.00 49 1009.0
20260504001918 53 54 0.0 0.0 0.00 0.00 0.00 48 1008.9
20260504001416 54 54 0.0 0.0 0.00 0.00 0.00 45 1008.7
20260504000912 54 55 0.0 0.0 0.00 0.00 0.00 42 1008.8
20260504000409 55 54 0.0 0.0 0.00 0.00 0.00 46 1008.7
20260503235907 55 55 0.0 0.9 0.00 0.00 0.00 44 1008.7
20260503235404 55 63 0.9 0.9 0.00 0.00 0.00 41 1008.6
20260503234902 55 71 0.9 0.9 0.00 0.00 0.00 41 1008.6
20260503234359 55 61 0.0 0.0 0.00 0.00 0.00 41 1008.4
20260503233857 56 105 0.9 1.7 0.00 0.00 0.00 41 1008.5
20260503233353 56 37 0.9 0.9 0.00 0.00 0.00 39 1008.3
20260503232849 56 64 0.0 0.0 0.00 0.00 0.00 39 1008.1
20260503232347 56 64 0.0 0.0 0.00 0.00 0.00 38 1008.2
20260503231845 56 64 0.0 0.0 0.00 0.00 0.00 37 1008.3
20260503231341 56 64 0.0 0.0 0.00 0.00 0.00 38 1008.2
20260503230837 56 62 0.0 0.0 0.00 0.00 0.00 38 1008.3
20260503230334 57 72 0.9 0.9 0.00 0.00 0.00 38 1008.3
20260503225833 57 57 0.0 0.0 0.00 0.00 0.00 37 1008.1
20260503225328 57 135 1.7 1.7 0.00 0.00 0.00 34 1008.0
20260503224824 57 1 0.9 0.9 0.00 0.00 0.00 37 1008.1
20260503224322 57 39 0.0 0.0 0.00 0.00 0.00 39 1008.2
20260503223820 57 26 1.7 1.7 0.00 0.00 0.00 34 1008.1
20260503223317 58 354 0.9 0.9 0.00 0.00 0.00 34 1008.1
20260503222812 58 28 1.7 1.7 0.00 0.00 0.00 33 1008.0
20260503222311 58 143 1.7 1.7 0.00 0.00 0.00 35 1007.9
20260503221809 58 66 0.0 0.0 0.00 0.00 0.00 34 1007.9
20260503221307 58 101 1.7 1.7 0.00 0.00 0.00 33 1008.0
20260503220803 58 46 0.9 0.9 0.00 0.00 0.00 35 1007.8
20260503220300 58 208 1.7 1.7 0.00 0.00 0.00 33 1007.8
20260503215756 58 65 0.0 0.0 0.00 0.00 0.00 33 1007.8
20260503215253 58 44 0.9 0.9 0.00 0.00 0.00 34 1008.0
20260503214752 58 158 2.6 2.6 0.00 0.00 0.00 32 1007.9
20260503214248 58 48 0.0 0.9 0.00 0.00 0.00 32 1008.1
20260503213746 58 46 0.0 0.0 0.00 0.00 0.00 34 1007.9
20260503213243 58 56 0.9 0.9 0.00 0.00 0.00 35 1008.1
20260503212740 58 326 1.7 1.7 0.00 0.00 0.00 33 1008.1
20260503212238 58 70 0.0 0.0 0.00 0.00 0.00 31 1008.0
20260503211735 58 108 1.7 1.7 0.00 0.00 0.00 34 1008.1
20260503211231 58 49 0.9 0.9 0.00 0.00 0.00 34 1008.1
20260503210727 58 3 0.9 1.7 0.00 0.00 0.00 31 1008.0
20260503210225 58 11 0.9 1.7 0.00 0.00 0.00 34 1008.0
20260503205719 57 179 2.6 4.3 0.00 0.00 0.00 37 1008.0
20260503205216 57 193 2.6 2.6 0.00 0.00 0.00 34 1008.2
20260503204712 58 233 2.6 2.6 0.00 0.00 0.00 33 1007.9
20260503204211 58 97 1.7 1.7 0.00 0.00 0.00 33 1007.9
20260503203707 59 230 1.7 2.6 0.00 0.00 0.00 32 1007.9
20260503203205 57 99 1.7 1.7 0.00 0.00 0.00 32 1007.9
20260503202702 58 46 0.9 0.9 0.00 0.00 0.00 32 1007.9
20260503202200 58 35 0.0 0.9 0.00 0.00 0.00 33 1007.9
20260503201657 58 337 1.7 1.7 0.00 0.00 0.00 32 1008.1
20260503201155 58 40 1.7 1.7 0.00 0.00 0.00 33 1008.0
20260503200651 57 119 2.6 2.6 0.00 0.00 0.00 34 1008.0
20260503200147 58 236 4.3 5.2 0.00 0.00 0.00 33 1008.3
20260503195644 57 272 2.6 2.6 0.00 0.00 0.00 33 1008.2
20260503195141 56 63 1.7 2.6 0.00 0.00 0.00 35 1008.2
20260503194638 57 42 1.7 1.7 0.00 0.00 0.00 34 1008.2
20260503194133 57 68 0.9 1.7 0.00 0.00 0.00 35 1008.2
20260503193631 57 358 1.7 2.6 0.00 0.00 0.00 34 1008.1
20260503193126 57 41 2.6 4.3 0.00 0.00 0.00 34 1008.3
20260503192622 57 311 1.7 5.2 0.00 0.00 0.00 35 1008.4
20260503192118 56 31 0.9 0.9 0.00 0.00 0.00 34 1008.5
20260503191615 57 80 0.9 0.9 0.00 0.00 0.00 37 1008.5
20260503191112 56 28 0.9 0.9 0.00 0.00 0.00 36 1008.5
20260503190609 57 319 2.6 2.6 0.00 0.00 0.00 35 1008.7
20260503190106 57 21 0.9 0.9 0.00 0.00 0.00 36 1008.5
20260503185603 57 15 1.7 1.7 0.00 0.00 0.00 34 1008.6
20260503185102 57 311 4.3 7.0 0.00 0.00 0.00 37 1008.7
20260503184558 57 2 1.7 1.7 0.00 0.00 0.00 37 1008.8
20260503184055 57 203 2.6 4.3 0.00 0.00 0.00 35 1008.8
20260503183551 56 180 4.3 5.2 0.00 0.00 0.00 38 1008.6
20260503183048 56 37 0.0 0.9 0.00 0.00 0.00 37 1008.8
20260503182547 57 338 1.7 2.6 0.00 0.00 0.00 34 1008.8
20260503182045 56 24 0.9 0.9 0.00 0.00 0.00 35 1008.9
20260503181541 55 13 3.5 4.3 0.00 0.00 0.00 37 1008.7
20260503181037 56 6 2.6 2.6 0.00 0.00 0.00 37 1008.7
20260503180535 55 287 2.6 4.3 0.00 0.00 0.00 40 1008.7
20260503180032 55 272 2.6 5.2 0.00 0.00 0.00 39 1008.9
20260503175530 54 89 0.9 1.7 0.00 0.00 0.00 43 1009.0
20260503175026 54 24 2.6 2.6 0.00 0.00 0.00 40 1008.9
20260503174524 55 78 1.7 1.7 0.00 0.00 0.00 39 1009.1
20260503174020 54 29 0.9 0.9 0.00 0.00 0.00 40 1009.0
20260503173515 53 48 1.7 2.6 0.00 0.00 0.00 41 1009.1
20260503173012 53 286 2.6 2.6 0.00 0.00 0.00 44 1009.3
20260503172510 53 356 3.5 5.2 0.00 0.00 0.00 42 1009.3
20260503172006 53 88 3.5 4.3 0.00 0.00 0.00 44 1009.3
20260503171503 52 111 4.3 5.2 0.00 0.00 0.00 42 1009.4
20260503171000 52 53 0.0 0.9 0.00 0.00 0.00 43 1009.3
20260503170456 52 337 2.6 2.6 0.00 0.00 0.00 47 1009.3
20260503150849 50 250 2.6 2.6 0.00 0.00 0.00 47 1009.9
20260503150345 49 70 1.7 2.6 0.00 0.00 0.00 46 1010.0
20260503140309 51 45 0.9 0.9 0.00 0.00 0.00 48 1009.9
20260503131238 50 197 2.6 2.6 0.00 0.00 0.00 52 1010.0
20260503130736 50 88 1.7 1.7 0.00 0.00 0.00 55 1009.8
20260503130233 48 47 0.9 0.9 0.00 0.00 0.00 56 1009.7
20260503120159 44 67 0.9 1.7 0.00 0.00 0.00 63 1010.0
20260503110627 43 65 0.9 0.9 0.00 0.00 0.00 64 1009.3
20260503110124 43 84 1.7 1.7 0.00 0.00 0.00 66 1009.5
20260503081440 45 42 0.9 1.7 0.00 0.00 0.00 61 1008.1
20260503080937 45 68 0.0 0.0 0.00 0.00 0.00 60 1008.0
20260503080433 45 68 0.0 0.0 0.00 0.00 0.00 59 1008.0
20260503072910 45 111 1.7 1.7 0.00 0.00 0.00 59 1008.1
20260503072407 46 67 0.9 0.9 0.00 0.00 0.00 58 1008.1
20260503071904 46 81 1.7 1.7 0.00 0.00 0.00 58 1007.9
20260503071401 46 69 0.0 0.0 0.00 0.00 0.00 57 1008.0
20260503070856 46 74 0.9 0.9 0.00 0.00 0.00 56 1008.1
20260503070355 46 65 0.0 0.0 0.00 0.00 0.00 59 1008.0
20260503060320 47 65 0.0 0.0 0.00 0.00 0.00 57 1008.3
20260503054808 47 53 0.0 0.0 0.00 0.00 0.00 58 1008.3
20260503054304 48 67 0.0 0.9 0.00 0.00 0.00 57 1008.4
20260503053802 48 67 0.0 0.0 0.00 0.00 0.00 55 1008.5
20260503053300 48 68 0.0 0.0 0.00 0.00 0.00 54 1008.4
20260503052756 48 68 0.0 0.0 0.00 0.00 0.00 52 1008.2
20260503052253 48 66 0.0 0.0 0.00 0.00 0.00 54 1008.3
20260503051748 48 65 0.0 0.0 0.00 0.00 0.00 52 1008.3
20260503051246 48 65 0.0 0.0 0.00 0.00 0.00 52 1008.5
20260503050742 48 67 0.9 0.9 0.00 0.00 0.00 56 1008.5
20260503050238 48 60 0.0 0.0 0.00 0.00 0.00 54 1008.8
20260503045736 48 88 0.9 1.7 0.00 0.00 0.00 55 1008.8
20260503045234 48 75 0.0 0.0 0.00 0.00 0.00 54 1008.7
20260503044730 47 66 0.0 0.0 0.00 0.00 0.00 57 1008.8
20260503044227 47 66 0.0 0.0 0.00 0.00 0.00 57 1008.6
20260503043724 47 66 0.0 0.0 0.00 0.00 0.00 58 1008.7
20260503043222 47 66 0.0 0.0 0.00 0.00 0.00 57 1008.9
20260503042717 48 66 0.0 0.0 0.00 0.00 0.00 58 1009.0
20260503042214 48 66 0.0 0.0 0.00 0.00 0.00 53 1008.9
20260503041710 48 66 0.0 0.0 0.00 0.00 0.00 54 1008.8
20260503041208 48 66 0.0 0.0 0.00 0.00 0.00 56 1008.7
20260503040705 48 66 0.0 0.0 0.00 0.00 0.00 54 1008.9
20260503040203 48 66 0.0 0.0 0.00 0.00 0.00 51 1008.9
20260503035659 49 67 0.9 0.9 0.00 0.00 0.00 53 1008.7
20260503035157 48 66 0.9 0.9 0.00 0.00 0.00 53 1008.9
20260503034654 49 65 0.0 0.0 0.00 0.00 0.00 54 1008.7
20260503034151 49 64 0.0 0.0 0.00 0.00 0.00 54 1008.6
20260503033648 49 65 0.0 0.0 0.00 0.00 0.00 51 1008.6
20260503033146 49 100 1.7 1.7 0.00 0.00 0.00 50 1008.7
20260503032644 49 73 0.0 0.0 0.00 0.00 0.00 51 1008.4
20260503032143 50 70 0.0 0.9 0.00 0.00 0.00 49 1008.4
20260503031639 50 66 0.0 0.0 0.00 0.00 0.00 48 1008.8
20260503031137 50 75 0.9 0.9 0.00 0.00 0.00 49 1008.6
20260503030633 49 72 0.0 0.9 0.00 0.00 0.00 47 1008.7
20260503030130 49 73 0.0 0.0 0.00 0.00 0.00 56 1008.7
20260503025626 49 92 1.7 1.7 0.00 0.00 0.00 50 1008.9
20260503025124 49 60 0.0 0.0 0.00 0.00 0.00 53 1008.5
20260503024620 50 75 0.9 0.9 0.00 0.00 0.00 52 1008.7
20260503024118 50 73 0.0 0.9 0.00 0.00 0.00 49 1008.7
20260503023615 50 73 0.0 0.0 0.00 0.00 0.00 50 1008.8
20260503023112 50 65 0.0 0.9 0.00 0.00 0.00 51 1008.6
20260503022607 50 74 0.0 0.9 0.00 0.00 0.00 48 1008.7
20260503022102 50 73 0.0 0.0 0.00 0.00 0.00 51 1008.8
20260503021600 50 75 0.9 0.9 0.00 0.00 0.00 52 1008.8
20260503021056 50 61 0.0 0.0 0.00 0.00 0.00 51 1008.7
20260503020553 50 76 1.7 1.7 0.00 0.00 0.00 50 1008.6
20260503020050 51 74 0.0 0.9 0.00 0.00 0.00 54 1008.9
20260503015547 51 74 0.0 0.0 0.00 0.00 0.00 51 1008.8
20260503015044 51 74 0.0 0.0 0.00 0.00 0.00 51 1008.9
20260503014540 51 74 0.0 0.0 0.00 0.00 0.00 50 1008.8
20260503014038 51 78 0.9 0.9 0.00 0.00 0.00 52 1009.0
20260503013535 51 72 0.0 0.0 0.00 0.00 0.00 50 1008.8
20260503013033 51 72 0.0 0.0 0.00 0.00 0.00 50 1009.0
20260503012530 51 72 0.0 0.0 0.00 0.00 0.00 50 1009.0
20260503012026 51 72 0.0 0.0 0.00 0.00 0.00 51 1008.9
20260503011523 51 72 0.0 0.0 0.00 0.00 0.00 48 1008.7
20260503011021 52 72 0.0 0.0 0.00 0.00 0.00 50 1008.7
20260503010516 52 72 0.0 0.0 0.00 0.00 0.00 52 1008.7
20260503010015 52 72 0.9 0.9 0.00 0.00 0.00 50 1008.8
20260503005511 52 72 0.0 0.0 0.00 0.00 0.00 50 1008.5
20260503005008 52 72 0.0 0.0 0.00 0.00 0.00 49 1008.4